Schneifelwetter: Wetterstation Hallschlag, 537 m . NN
Wetterdaten: Dienstag, 28.12.2010
Datum Zeit Temp. A. Feuchte A. Luftdruck Regen Wind Richtung Richtung Sonnenschein Helligkeit T Regen Taupunkt Windchill
28.12.2010 00:00 -3,6 C 93 % 1016 hPa 0,0 l/m 0,0 km/h (0 Bft) N-NO 15 0 min 0 lux 0,00 min -4,6 C -3,6 C
28.12.2010 00:15 -3,6 C 92 % 1016 hPa 0,0 l/m 0,0 km/h (0 Bft) N-NO 15 0 min 0 lux 0,00 min -4,7 C -3,6 C
28.12.2010 00:30 -3,5 C 91 % 1016 hPa 0,0 l/m 0,0 km/h (0 Bft) N-NO 15 0 min 0 lux 0,00 min -4,8 C -3,5 C
28.12.2010 00:45 -3,9 C 91 % 1016 hPa 0,0 l/m 0,0 km/h (0 Bft) N-NO 15 0 min 0 lux 0,00 min -5,1 C -3,9 C
28.12.2010 01:00 -4,6 C 91 % 1016 hPa 0,0 l/m 0,0 km/h (0 Bft) N-NO 15 0 min 0 lux 0,00 min -5,8 C -4,6 C
28.12.2010 01:15 -4,8 C 92 % 1016 hPa 0,0 l/m 0,0 km/h (0 Bft) N-NO 15 0 min 0 lux 0,00 min -5,9 C -4,8 C
28.12.2010 01:30 -4,5 C 92 % 1016 hPa 0,0 l/m 0,0 km/h (0 Bft) N-NO 15 0 min 0 lux 0,00 min -5,6 C -4,5 C
28.12.2010 01:45 -4,6 C 92 % 1016 hPa 0,0 l/m 0,0 km/h (0 Bft) N-NO 15 0 min 0 lux 0,00 min -5,7 C -4,6 C
28.12.2010 02:00 -4,7 C 92 % 1016 hPa 0,0 l/m 0,0 km/h (0 Bft) N-NO 15 0 min 0 lux 0,00 min -5,8 C -4,7 C
28.12.2010 02:15 -4,8 C 93 % 1015 hPa 0,0 l/m 0,0 km/h (0 Bft) N-NO 15 0 min 0 lux 0,00 min -5,8 C -4,8 C
28.12.2010 02:30 -4,8 C 93 % 1015 hPa 0,0 l/m 0,0 km/h (0 Bft) N-NO 15 0 min 0 lux 0,00 min -5,8 C -4,8 C
28.12.2010 02:45 -4,8 C 93 % 1015 hPa 0,0 l/m 0,0 km/h (0 Bft) N-NO 15 0 min 0 lux 0,00 min -5,8 C -4,8 C
28.12.2010 03:00 -4,7 C 94 % 1015 hPa 0,0 l/m 0,0 km/h (0 Bft) N-NO 15 0 min 0 lux 0,00 min -5,5 C -4,7 C
28.12.2010 03:15 -4,6 C 94 % 1015 hPa 0,0 l/m 0,0 km/h (0 Bft) N-NO 15 0 min 0 lux 0,00 min -5,4 C -4,6 C
28.12.2010 03:30 -4,6 C 94 % 1015 hPa 0,0 l/m 0,0 km/h (0 Bft) N-NO 15 0 min 0 lux 0,00 min -5,4 C -4,6 C
28.12.2010 03:45 -4,4 C 94 % 1015 hPa 0,0 l/m 0,0 km/h (0 Bft) N-NO 15 0 min 0 lux 0,00 min -5,2 C -4,4 C
28.12.2010 04:00 -4,5 C 94 % 1015 hPa 0,0 l/m 0,0 km/h (0 Bft) N-NO 15 0 min 0 lux 0,00 min -5,3 C -4,5 C
28.12.2010 04:14 -4,6 C 94 % 1015 hPa 0,0 l/m 0,0 km/h (0 Bft) N-NO 15 0 min 0 lux 0,00 min -5,4 C -4,6 C
28.12.2010 04:29 -4,6 C 94 % 1015 hPa 0,0 l/m 0,0 km/h (0 Bft) N-NO 15 0 min 0 lux 0,00 min -5,4 C -4,6 C
28.12.2010 04:44 -4,6 C 95 % 1015 hPa 0,0 l/m 0,0 km/h (0 Bft) N-NO 15 0 min 0 lux 0,00 min -5,3 C -4,6 C
28.12.2010 05:00 -4,6 C 95 % 1015 hPa 0,0 l/m 0,0 km/h (0 Bft) N-NO 15 0 min 0 lux 0,00 min -5,3 C -4,6 C
28.12.2010 05:15 -4,6 C 95 % 1015 hPa 0,0 l/m 0,0 km/h (0 Bft) N-NO 15 0 min 0 lux 0,00 min -5,3 C -4,6 C
28.12.2010 05:30 -4,6 C 95 % 1014 hPa 0,0 l/m 0,0 km/h (0 Bft) N-NO 15 0 min 0 lux 0,00 min -5,3 C -4,6 C
28.12.2010 05:45 -4,7 C 95 % 1014 hPa 0,0 l/m 0,0 km/h (0 Bft) N-NO 15 0 min 0 lux 0,00 min -5,4 C -4,7 C
28.12.2010 06:00 -4,7 C 95 % 1014 hPa 0,0 l/m 0,0 km/h (0 Bft) N-NO 15 0 min 0 lux 0,00 min -5,4 C -4,7 C
28.12.2010 06:15 -4,7 C 95 % 1014 hPa 0,0 l/m 0,0 km/h (0 Bft) N-NO 15 0 min 0 lux 0,00 min -5,4 C -4,7 C
28.12.2010 06:30 -4,7 C 95 % 1014 hPa 0,0 l/m 0,0 km/h (0 Bft) N-NO 15 0 min 0 lux 0,00 min -5,4 C -4,7 C
28.12.2010 06:45 -4,7 C 96 % 1015 hPa 0,0 l/m 0,0 km/h (0 Bft) N-NO 15 0 min 0 lux 0,00 min -5,2 C -4,7 C
28.12.2010 07:00 -4,6 C 96 % 1014 hPa 0,0 l/m 0,0 km/h (0 Bft) N-NO 15 0 min 0 lux 0,00 min -5,1 C -4,6 C
28.12.2010 07:15 -4,6 C 96 % 1014 hPa 0,0 l/m 0,0 km/h (0 Bft) N-NO 15 0 min 0 lux 0,00 min -5,1 C -4,6 C
28.12.2010 07:30 -4,6 C 96 % 1015 hPa 0,0 l/m 0,0 km/h (0 Bft) N-NO 15 0 min 0 lux 0,00 min -5,1 C -4,6 C
28.12.2010 07:45 -4,5 C 96 % 1015 hPa 0,0 l/m 0,0 km/h (0 Bft) N-NO 15 0 min 0 lux 0,00 min -5,0 C -4,5 C
28.12.2010 08:00 -4,5 C 96 % 1015 hPa 0,0 l/m 0,0 km/h (0 Bft) N-NO 15 0 min 0 lux 0,00 min -5,0 C -4,5 C
28.12.2010 08:15 -4,3 C 96 % 1015 hPa 0,0 l/m 0,0 km/h (0 Bft) N-NO 15 0 min 0 lux 0,00 min -4,8 C -4,3 C
28.12.2010 08:30 -4,2 C 96 % 1015 hPa 0,0 l/m 0,0 km/h (0 Bft) N-NO 15 0 min 186 lux 0,00 min -4,7 C -4,2 C
28.12.2010 08:45 -4,4 C 96 % 1015 hPa 0,0 l/m 0,0 km/h (0 Bft) N-NO 15 0 min 465 lux 0,00 min -4,9 C -4,4 C
28.12.2010 09:00 -4,3 C 96 % 1015 hPa 0,0 l/m 0,0 km/h (0 Bft) N-NO 15 0 min 990 lux 0,00 min -4,8 C -4,3 C
28.12.2010 09:15 -4,2 C 96 % 1015 hPa 0,0 l/m 0,0 km/h (0 Bft) N-NO 15 0 min 1,39 klux 0,00 min -4,7 C -4,2 C
28.12.2010 09:30 -4,2 C 96 % 1015 hPa 0,0 l/m 0,0 km/h (0 Bft) N-NO 15 0 min 1,90 klux 0,00 min -4,7 C -4,2 C
28.12.2010 09:45 -4,0 C 96 % 1015 hPa 0,0 l/m 0,0 km/h (0 Bft) N-NO 15 0 min 2,64 klux 0,00 min -4,5 C -4,0 C
28.12.2010 10:00 -3,8 C 96 % 1015 hPa 0,0 l/m 0,0 km/h (0 Bft) N-NO 15 0 min 3,33 klux 0,00 min -4,3 C -3,8 C
28.12.2010 10:15 -3,6 C 96 % 1015 hPa 0,0 l/m 0,0 km/h (0 Bft) N-NO 15 0 min 4,98 klux 0,00 min -4,1 C -3,6 C
28.12.2010 10:30 -3,3 C 96 % 1015 hPa 0,0 l/m 0,0 km/h (0 Bft) N-NO 20 0 min 7,09 klux 0,00 min -3,8 C -3,3 C
28.12.2010 10:45 -2,8 C 96 % 1015 hPa 0,0 l/m 0,0 km/h (0 Bft) N-NO 20 0 min 7,58 klux 0,00 min -3,3 C -2,8 C
28.12.2010 11:00 -2,6 C 95 % 1015 hPa 0,0 l/m 0,0 km/h (0 Bft) N-NO 20 0 min 6,28 klux 0,00 min -3,3 C -2,6 C
28.12.2010 11:15 -2,1 C 96 % 1015 hPa 0,0 l/m 0,0 km/h (0 Bft) N-NO 20 0 min 15,5 klux 0,00 min -2,6 C -2,1 C
28.12.2010 11:30 -1,5 C 95 % 1015 hPa 0,0 l/m 0,0 km/h (0 Bft) N-NO 20 0 min 15,6 klux 0,00 min -2,2 C -1,5 C
28.12.2010 11:45 -1,4 C 94 % 1015 hPa 0,0 l/m 0,0 km/h (0 Bft) N-NO 20 0 min 9,6 klux 0,00 min -2,2 C -1,4 C
28.12.2010 12:00 -1,4 C 94 % 1015 hPa 0,0 l/m 0,0 km/h (0 Bft) N-NO 20 0 min 10,7 klux 0,00 min -2,2 C -1,4 C
28.12.2010 12:15 -1,5 C 93 % 1015 hPa 0,0 l/m 0,0 km/h (0 Bft) N-NO 20 0 min 9,3 klux 0,00 min -2,5 C -1,5 C
28.12.2010 12:30 -1,6 C 92 % 1016 hPa 0,0 l/m 0,0 km/h (0 Bft) N-NO 20 0 min 9,1 klux 0,00 min -2,7 C -1,6 C
28.12.2010 12:45 -1,8 C 92 % 1016 hPa 0,0 l/m 0,0 km/h (0 Bft) N-NO 20 0 min 7,99 klux 0,00 min -2,9 C -1,8 C
28.12.2010 13:00 -1,8 C 92 % 1016 hPa 0,0 l/m 0,0 km/h (0 Bft) N-NO 20 0 min 7,81 klux 0,00 min -2,9 C -1,8 C
28.12.2010 13:15 -1,8 C 92 % 1016 hPa 0,0 l/m 0,0 km/h (0 Bft) N-NO 20 0 min 6,84 klux 0,00 min -2,9 C -1,8 C
28.12.2010 13:30 -2,0 C 92 % 1016 hPa 0,0 l/m 0,0 km/h (0 Bft) N-NO 20 0 min 6,88 klux 0,00 min -3,1 C -2,0 C
28.12.2010 13:45 -2,1 C 92 % 1015 hPa 0,0 l/m 0,0 km/h (0 Bft) N-NO 20 0 min 7,21 klux 0,00 min -3,2 C -2,1 C
28.12.2010 13:59 -2,0 C 92 % 1015 hPa 0,0 l/m 0,0 km/h (0 Bft) N-NO 20 0 min 8,14 klux 0,00 min -3,1 C -2,0 C
28.12.2010 14:15 -2,0 C 92 % 1015 hPa 0,0 l/m 0,0 km/h (0 Bft) N-NO 20 0 min 8,63 klux 0,00 min -3,1 C -2,0 C
28.12.2010 14:30 -1,8 C 92 % 1015 hPa 0,0 l/m 0,0 km/h (0 Bft) N-NO 20 0 min 8,55 klux 0,00 min -2,9 C -1,8 C
28.12.2010 14:45 -1,8 C 92 % 1016 hPa 0,0 l/m 0,0 km/h (0 Bft) N-NO 20 0 min 6,77 klux 0,00 min -2,9 C -1,8 C
28.12.2010 15:00 -1,9 C 92 % 1016 hPa 0,0 l/m 0,0 km/h (0 Bft) N-NO 20 0 min 5,37 klux 0,00 min -3,0 C -1,9 C
28.12.2010 15:15 -1,9 C 92 % 1016 hPa 0,0 l/m 0,0 km/h (0 Bft) N-NO 20 0 min 4,97 klux 0,00 min -3,0 C -1,9 C
28.12.2010 15:30 -2,0 C 92 % 1016 hPa 0,0 l/m 0,0 km/h (0 Bft) N-NO 20 0 min 4,64 klux 0,00 min -3,1 C -2,0 C
28.12.2010 15:45 -2,1 C 92 % 1016 hPa 0,0 l/m 0,0 km/h (0 Bft) N-NO 20 0 min 3,73 klux 0,00 min -3,2 C -2,1 C
28.12.2010 16:00 -2,2 C 92 % 1016 hPa 0,0 l/m 0,0 km/h (0 Bft) N-NO 20 0 min 2,87 klux 0,00 min -3,3 C -2,2 C
28.12.2010 16:15 -2,2 C 92 % 1016 hPa 0,0 l/m 0,0 km/h (0 Bft) N-NO 20 0 min 2,62 klux 0,00 min -3,3 C -2,2 C
28.12.2010 16:30 -2,2 C 92 % 1016 hPa 0,0 l/m 0,0 km/h (0 Bft) N-NO 20 0 min 2,11 klux 0,00 min -3,3 C -2,2 C
28.12.2010 16:45 -2,4 C 93 % 1016 hPa 0,0 l/m 0,0 km/h (0 Bft) N-NO 20 0 min 1,00 klux 0,00 min -3,4 C -2,4 C
28.12.2010 17:00 -2,5 C 93 % 1016 hPa 0,0 l/m 0,0 km/h (0 Bft) N-NO 20 0 min 166 lux 0,00 min -3,5 C -2,5 C
28.12.2010 17:15 -2,6 C 93 % 1016 hPa 0,0 l/m 0,0 km/h (0 Bft) N-NO 20 0 min 32 lux 0,00 min -3,6 C -2,6 C
28.12.2010 17:30 -2,8 C 94 % 1016 hPa 0,0 l/m 0,0 km/h (0 Bft) N-NO 20 0 min 6 lux 0,00 min -3,6 C -2,8 C
28.12.2010 17:45 -2,9 C 94 % 1016 hPa 0,0 l/m 0,0 km/h (0 Bft) N-NO 20 0 min 0 lux 0,00 min -3,7 C -2,9 C
28.12.2010 18:00 -2,9 C 94 % 1016 hPa 0,0 l/m 0,0 km/h (0 Bft) N-NO 20 0 min 0 lux 0,00 min -3,7 C -2,9 C
28.12.2010 18:15 -2,9 C 94 % 1016 hPa 0,0 l/m 0,0 km/h (0 Bft) N-NO 20 0 min 0 lux 0,00 min -3,7 C -2,9 C
28.12.2010 18:30 -2,9 C 94 % 1016 hPa 0,0 l/m 0,0 km/h (0 Bft) N-NO 20 0 min 0 lux 0,00 min -3,7 C -2,9 C
28.12.2010 18:45 -2,8 C 95 % 1017 hPa 0,0 l/m 0,0 km/h (0 Bft) N-NO 20 0 min 0 lux 0,00 min -3,5 C -2,8 C
28.12.2010 18:59 -2,8 C 95 % 1017 hPa 0,0 l/m 0,0 km/h (0 Bft) N-NO 20 0 min 0 lux 0,00 min -3,5 C -2,8 C
28.12.2010 19:15 -2,8 C 95 % 1017 hPa 0,0 l/m 0,0 km/h (0 Bft) N-NO 20 0 min 0 lux 0,00 min -3,5 C -2,8 C
28.12.2010 19:30 -2,8 C 95 % 1017 hPa 0,0 l/m 0,0 km/h (0 Bft) N-NO 20 0 min 0 lux 0,00 min -3,5 C -2,8 C
28.12.2010 19:45 -2,8 C 95 % 1017 hPa 0,0 l/m 0,0 km/h (0 Bft) N-NO 20 0 min 0 lux 0,00 min -3,5 C -2,8 C
28.12.2010 20:00 -2,7 C 95 % 1017 hPa 0,0 l/m 0,0 km/h (0 Bft) N-NO 20 0 min 0 lux 0,00 min -3,4 C -2,7 C
28.12.2010 20:15 -2,6 C 96 % 1017 hPa 0,0 l/m 0,0 km/h (0 Bft) N-NO 20 0 min 0 lux 0,00 min -3,1 C -2,6 C
28.12.2010 20:30 -2,5 C 96 % 1017 hPa 0,0 l/m 0,0 km/h (0 Bft) N-NO 20 0 min 0 lux 0,00 min -3,0 C -2,5 C
28.12.2010 20:45 -2,5 C 97 % 1017 hPa 0,0 l/m 0,0 km/h (0 Bft) N-NO 20 0 min 0 lux 0,00 min -2,9 C -2,5 C
28.12.2010 21:00 -2,5 C 97 % 1017 hPa 0,0 l/m 0,0 km/h (0 Bft) N-NO 20 0 min 0 lux 0,00 min -2,9 C -2,5 C
28.12.2010 21:15 -2,5 C 97 % 1017 hPa 0,0 l/m 0,0 km/h (0 Bft) N-NO 20 0 min 0 lux 0,00 min -2,9 C -2,5 C
28.12.2010 21:30 -2,5 C 97 % 1017 hPa 0,0 l/m 0,0 km/h (0 Bft) N-NO 20 0 min 0 lux 0,00 min -2,9 C -2,5 C
28.12.2010 21:45 -2,5 C 98 % 1017 hPa 0,0 l/m 0,0 km/h (0 Bft) N-NO 20 0 min 0 lux 0,00 min -2,8 C -2,5 C
28.12.2010 22:00 -2,4 C 98 % 1017 hPa 0,0 l/m 0,0 km/h (0 Bft) N-NO 20 0 min 0 lux 0,00 min -2,7 C -2,4 C
28.12.2010 22:15 -2,2 C 98 % 1017 hPa 0,0 l/m 0,0 km/h (0 Bft) N-NO 20 0 min 0 lux 0,00 min -2,5 C -2,2 C
28.12.2010 22:30 -2,2 C 98 % 1017 hPa 0,0 l/m 0,0 km/h (0 Bft) N-NO 20 0 min 0 lux 0,00 min -2,5 C -2,2 C
28.12.2010 22:45 -2,2 C 98 % 1017 hPa 0,0 l/m 0,0 km/h (0 Bft) N-NO 20 0 min 0 lux 0,00 min -2,5 C -2,2 C
28.12.2010 23:00 -2,2 C 98 % 1017 hPa 0,0 l/m 0,0 km/h (0 Bft) N-NO 20 0 min 0 lux 0,00 min -2,5 C -2,2 C
28.12.2010 23:15 -2,2 C 99 % 1017 hPa 0,0 l/m 0,0 km/h (0 Bft) N-NO 20 0 min 0 lux 0,00 min -2,3 C -2,2 C
28.12.2010 23:30 -2,2 C 99 % 1017 hPa 0,0 l/m 0,0 km/h (0 Bft) N-NO 20 0 min 0 lux 0,00 min -2,3 C -2,2 C
28.12.2010 23:45 -2,0 C 99 % 1017 hPa 0,0 l/m 0,0 km/h (0 Bft) N-NO 20 0 min 0 lux 0,00 min -2,1 C -2,0 C
_ Min-Zeit 01:15 00:30 05:30 - 00:00 - - - - - 01:15 01:15
Minimum _ -4,8 C 91 % 1014 hPa - 0,0 km/h (0 Bft) - - - - - -5,9 C -4,8 C
_ Max-Zeit 11:45 23:15 18:45 00:00 00:00 - - 00:00 11:30 00:00 23:45 11:45
Maximum _ -1,4 C 99 % 1017 hPa 0,0 l/m 0,0 km/h
N-NO (0 Bft)
- - 0 min 15,6 klux 0,00 min -2,1 C -1,4 C
Durchschnitt _ -3,2 C 94 % 1016 hPa #0,0 l/m 0,0 km/h (0 Bft) - - - #0 min. 2,11 klux #0 min. -4,0 C -3,2 C